Погода в Сурах

Россия / Орловская область     52°51′01″N   36°43′24″E
темп.,
°C
ветер,
м/с
пор.,
м/с
влажн.,
%
обл.,
%
осадки,
мм/ч
давл.,
гПа
погр.,
м
28 ноября, вс
вс2800:00+3ю51298100 0.0 1003350
03:00+4ююз51398100 0.0 1004356
06:00+5юз4109899 0.0 1004331
09:00+4юз479454 0.0 1006294
12:00+5зюз368144 0.0 1007316
15:00+5ююз248049 0.0 1008132
18:00+3ююв3493100 0.0 100960
21:00+3ююв4996100 0.0 1009213
29 ноября, пн
пн2900:00+4юв41093100 0.0 1008358
03:00+4юв51195100 0.0 1006244
06:00+4вюв51098100 0.0 1003235
09:00+5в51298100 1.7 1000434
12:00+6юв41099100 0.4 998304
15:00+7ю51198100 0.5 996476
18:00+7ююв51294100 0.1 994421
21:00+7вюв61196100 0.5 989369
30 ноября, вт
вт3000:00+8вюв51198100 4.9 981356
03:00+8ю111990100 7.8 9761294
06:00+7юз131891100 7.4 9771234
09:00+1зюз142396100 13.6 9831102
12:00+1зюз132187100 2.3 9871120
15:00+1зюз111882100 2.3 9891088
18:000юз101684100 0.0 9911263
21:000юз9158676 0.1 9911052
1 декабря, ср
ср100:00−1зюз91380100 0.0 9911025
03:00−2зюз8128693 0.1 992922
06:00−2з8139096 0.1 9911040
09:00−3з81294100 0.9 994955
12:00−3з81293100 1.3 995943
15:00−3з81293100 2.0 997885
18:00−4з71286100 0.2 999786
21:00−5зсз7128897 0.3 1001681
2 декабря, чт
чт200:00−5з5118981 0.1 1003590
03:00−6з499145 0.1 1004361
06:00−6юз389498 0.0 1005285
09:00−4ю51189100 0.0 1005406
12:00−2ю71696100 0.4 1003677
15:000ююз81596100 1.6 1003662
18:00+1юз71594100 0.4 1004555
21:00+1юз61590100 0.4 1004437